User: anonymous   Login
Location: Unspecified
(0.0000°N, 0.0000°E)
Time: 13:47:58
(UTC+01:00)
Language:

NOAA 12 - Orbit

View from above orbital plane
View from above orbital plane
View from above satellite
View from above satellite

Ground track
Ground track

The orbit data is extracted from the following two-line orbital elements,

1 21263U 91032A   17351.52078603  .00000000  00000-0  17966-4 0  9990
2 21263  98.5503  11.2689 0014780 105.4354 254.8460 14.25857438382857
Epoch (UTC): 17 December 2017 12:29:55
Eccentricity: 0.0014780
inclination: 98.5503°
perigee height: 795 km
apogee height: 816 km
right ascension of ascending node: 11.2689°
argument of perigee: 105.4354°
revolutions per day: 14.25857438
mean anomaly at epoch: 254.8460°
orbit number at epoch: 38285

The dashed part of the orbit path shows where the satellite is in the earth's shadow,  

DLR